ZF1RC George Town KY current weather conditions

sailwx.info

Wind from 021 at 6 knots gusting 10

Air temperature 27.8° C
Dewpoint 19.3° C

Last reported at 2016-May-06 15:50 UTC.
Time now 2016-May-06 16:55 UTC

Location: N 19°16' W 081°23'.
View on Google Maps.

See reports from other nearby stations

  
Tides and Currents Weather Stations Pressure Air Temp Water Temp Dewpoint Dewpoint Depression Visibility Wind Speed Wind Dir Waves Ship Positions
date/time (UTC)wind fromknots sea level pressurealtimeterstation pressurevisibilityair tempwater tempwave heightnotes
2016-May-06 15:50 021 6 gusting 10 27.8
2016-May-06 15:40 335 5 gusting 11 27.2
2016-May-06 15:30 342 6 gusting 10 27.2
2016-May-06 15:20 003 7 gusting 11 27.2
2016-May-06 15:10 343 6 gusting 8 27.8
2016-May-06 15:00 003 4 gusting 11 27.8
2016-May-06 14:50 041 6 gusting 8 27.2
2016-May-06 14:40 351 7 gusting 10 27.2
2016-May-06 14:30 047 6 gusting 10 27.8
2016-May-06 14:20 016 7 gusting 8 27.2
2016-May-06 14:10 026 4 gusting 10 27.2
2016-May-06 14:00 029 5 gusting 11 27.2
2016-May-06 13:50 343 7 gusting 12 27.2
2016-May-06 13:40 006 4 gusting 6 26.7
2016-May-06 13:30 354 8 gusting 13 26.7
2016-May-06 13:20 341 6 gusting 8 26.1
2016-May-06 13:10 043 7 gusting 12 26.1
2016-May-06 13:00 028 6 gusting 11 26.1
2016-May-06 12:50 111 3 gusting 10 26.1
2016-May-06 12:40 329 5 gusting 10 26.1
2016-May-06 12:30 018 7 gusting 12 26.1
2016-May-06 12:20 349 6 gusting 6 25.6
2016-May-06 12:10 018 7 gusting 11 25.6
2016-May-06 12:00 023 6 gusting 7 25.6
2016-May-06 11:50 335 5 gusting 7 25.0
2016-May-06 11:40 329 6 gusting 7 25.0
2016-May-06 11:30 021 5 gusting 6 25.0
2016-May-06 11:20 342 2 gusting 6 25.0
2016-May-06 11:10 038 1 gusting 6 25.0
2016-May-06 11:00 049 4 gusting 7 25.0
2016-May-06 10:50 028 5 gusting 7 25.0
2016-May-06 10:40 003 5 gusting 7 25.0
2016-May-06 10:30 008 6 gusting 7 25.0
2016-May-06 10:20 035 2 gusting 7 25.0
2016-May-06 10:10 035 4 gusting 7 25.0
2016-May-06 10:00 035 5 gusting 10 25.0
2016-May-06 09:50 042 4 gusting 10 25.0
2016-May-06 09:40 023 5 gusting 6 25.6
2016-May-06 09:30 038 6 gusting 6 25.6
2016-May-06 09:20 044 6 gusting 8 25.6
2016-May-06 09:10 014 3 gusting 5 25.0
2016-May-06 09:00 001 2 gusting 2 25.0
2016-May-06 08:50 031 1 gusting 2 25.0
2016-May-06 08:40 019 2 gusting 5 25.0
2016-May-06 08:30 25.0
2016-May-06 08:20 008 1 gusting 4 25.0
2016-May-06 08:10 352 2 gusting 4 25.6
2016-May-06 08:00 007 5 gusting 6 25.6
2016-May-06 07:50 007 2 gusting 6 25.6
2016-May-06 07:40 053 4 gusting 6 25.6
2016-May-06 07:30 354 2 gusting 6 25.6
2016-May-06 07:20 003 4 gusting 6 25.6
2016-May-06 07:10 018 3 gusting 6 25.6
2016-May-06 07:00 005 2 gusting 5 25.6
2016-May-06 06:50 324 2 gusting 6 25.6
2016-May-06 06:40 006 2 gusting 5 25.6
2016-May-06 06:30 353 0 gusting 6 25.6
2016-May-06 06:20 032 1 gusting 6 25.6
2016-May-06 06:10 040 2 gusting 5 25.6
2016-May-06 06:00 032 2 gusting 6 25.6
2016-May-06 05:50 001 4 gusting 6 25.6
2016-May-06 05:40 352 4 gusting 6 25.6
2016-May-06 05:30 004 4 gusting 6 25.6
2016-May-06 05:20 314 3 gusting 5 25.6
2016-May-06 05:10 007 4 gusting 5 25.6
2016-May-06 05:00 341 6 gusting 6 26.1
2016-May-06 04:50 089 6 gusting 6 26.1
2016-May-06 04:40 009 4 gusting 6 26.1
2016-May-06 04:30 026 2 gusting 6 26.1
2016-May-06 04:20 030 1 gusting 6 26.1
2016-May-06 04:10 354 3 gusting 7 26.1
2016-May-06 04:00 011 4 gusting 7 26.1
2016-May-06 03:50 021 5 gusting 6 26.1
2016-May-06 03:40 26.1
2016-May-06 03:30 030 4 gusting 6 26.1
2016-May-06 03:20 027 6 gusting 6 26.1
2016-May-06 03:10 021 5 gusting 8 26.1
2016-May-06 03:00 007 5 gusting 8 26.1
2016-May-06 02:50 012 2 gusting 8 26.1
2016-May-06 02:40 001 4 gusting 6 26.1
2016-May-06 02:30 033 4 gusting 6 26.1
2016-May-06 02:20 041 2 gusting 7 26.1
2016-May-06 02:10 043 2 gusting 6 26.1
2016-May-06 02:00 007 4 gusting 6 26.7
2016-May-06 01:50 033 4 gusting 7 26.7
2016-May-06 01:40 351 4 gusting 8 26.7
2016-May-06 01:30 054 5 gusting 8 26.7
2016-May-06 01:20 001 5 gusting 6 26.7
2016-May-06 01:10 021 7 gusting 8 26.7
2016-May-06 01:00 048 5 gusting 8 26.7
2016-May-06 00:50 048 6 gusting 6 26.7
2016-May-06 00:40 350 6 gusting 7 26.7
2016-May-06 00:30 014 4 gusting 8 26.7
2016-May-06 00:20 024 6 gusting 8 26.7
2016-May-06 00:10 015 6 gusting 8 26.7
2016-May-06 00:00 037 7 gusting 11 26.7
2016-May-05 23:50 031 3 gusting 8 26.7
2016-May-05 23:40 022 5 gusting 8 26.7
2016-May-05 23:30 023 6 gusting 8 26.7
2016-May-05 23:20 010 6 gusting 10 26.7
2016-May-05 23:10 354 6 gusting 8 26.7
2016-May-05 23:00 326 6 gusting 13 26.7
2016-May-05 22:54 001 7 gusting 8 26.7
2016-May-05 22:50 006 6 gusting 6 26.7
2016-May-05 22:40 002 4 gusting 7 26.7
2016-May-05 22:30 058 7 gusting 10 26.7
2016-May-05 22:20 028 7 gusting 13 27.2
2016-May-05 22:10 007 6 gusting 13 27.2
2016-May-05 22:00 005 5 gusting 7 27.8
2016-May-05 21:50 322 11 gusting 13 27.2
2016-May-05 21:40 27.2
2016-May-05 21:30 338 6 gusting 10 27.2
2016-May-05 21:20 340 4 gusting 11 27.8
2016-May-05 21:10 344 5 gusting 12 27.2
2016-May-05 21:00 337 5 gusting 7 27.8
2016-May-05 20:50 314 8 gusting 10 27.8
2016-May-05 20:40 336 4 gusting 11 27.8
2016-May-05 20:30 028 5 gusting 10 28.3
2016-May-05 20:20 317 7 gusting 11 27.8
2016-May-05 20:10 348 5 gusting 7 28.3
2016-May-05 20:00 313 6 gusting 8 29.4
2016-May-05 19:50 289 5 gusting 13 29.4
2016-May-05 19:40 324 7 gusting 11 29.4
2016-May-05 19:30 298 6 gusting 10 29.4
2016-May-05 19:20 302 6 gusting 8 28.9
2016-May-05 19:10 236 4 gusting 8 29.4
2016-May-05 19:00 304 8 gusting 8 28.9
2016-May-05 18:50 306 7 gusting 12 28.9
2016-May-05 18:40 333 8 gusting 10 28.3
2016-May-05 18:30 297 4 gusting 8 27.2
2016-May-05 18:20 287 2 gusting 8 26.1
2016-May-05 18:10 258 6 gusting 7 26.7
2016-May-05 18:00 313 5 gusting 8 26.1
2016-May-05 17:50 285 6 gusting 10 27.2
2016-May-05 17:40 279 3 gusting 10 28.3
2016-May-05 17:30 180 7 gusting 11 29.4
2016-May-05 17:20 264 4 gusting 11 30.6
2016-May-05 17:10 247 7 gusting 11 30.6
2016-May-05 17:00 293 6 gusting 10 30.6
2016-May-05 16:50 228 4 gusting 7 30.6
2016-May-05 16:40 243 6 gusting 7 29.4
2016-May-05 16:30 222 6 gusting 8 29.4
2016-May-05 16:20 225 6 gusting 7 28.3
2016-May-05 16:10 230 4 gusting 11 28.3
2016-May-05 16:00 245 7 gusting 10 29.4
2016-May-05 15:50 235 8 gusting 8 30.0
2016-May-05 15:46 202 6 26.7
2016-May-05 15:40 238 4 gusting 8 29.4
2016-May-05 15:30 244 6 gusting 10 28.9
2016-May-05 15:20 261 5 gusting 10 28.9
2016-May-05 15:10 225 7 gusting 10 28.3
2016-May-05 15:00 240 6 gusting 8 27.2
2016-May-05 14:50 252 5 gusting 11 28.9
2016-May-05 14:40 194 6 gusting 11 30.0
2016-May-05 14:30 182 6 gusting 10 29.4
2016-May-05 14:20 213 5 gusting 10 29.4
2016-May-05 14:10 232 6 gusting 12 29.4
2016-May-05 14:00 252 4 gusting 8 28.9
2016-May-05 13:50 193 6 gusting 8 28.9
2016-May-05 13:40 185 6 gusting 8 28.3
2016-May-05 13:30 190 6 gusting 8 28.3
2016-May-05 13:20 228 6 gusting 11 28.3
2016-May-05 13:10 188 6 gusting 6 28.3
2016-May-05 13:00 177 6 gusting 6 27.8
2016-May-05 12:50 196 6 gusting 7 27.8
2016-May-05 12:40 184 6 gusting 10 27.8
2016-May-05 12:30 224 6 gusting 8 27.8
2016-May-05 12:20 194 4 gusting 6 27.2
2016-May-05 12:10 169 4 gusting 8 27.2
2016-May-05 12:00 186 5 gusting 8 27.2
2016-May-05 11:50 203 6 gusting 7 27.2
2016-May-05 11:40 206 7 gusting 7 27.2
2016-May-05 11:30 206 6 gusting 6 26.7
2016-May-05 11:20 188 4 gusting 7 26.7
2016-May-05 11:10 187 7 gusting 8 26.7
2016-May-05 11:00 176 5 gusting 8 26.7
2016-May-05 10:50 224 5 gusting 7 26.7
2016-May-05 10:40 195 6 gusting 7 26.7
2016-May-05 10:30 208 4 gusting 6 26.7
2016-May-05 10:20 178 7 gusting 8 26.7
2016-May-05 10:10 198 4 gusting 6 26.7
2016-May-05 10:00 217 4 gusting 10 26.7
2016-May-05 09:50 212 5 gusting 6 26.7
2016-May-05 09:40 162 5 gusting 7 26.7
2016-May-05 09:30 194 5 gusting 6 26.7
2016-May-05 09:20 184 6 gusting 7 26.7
2016-May-05 09:10 207 4 gusting 7 26.7
2016-May-05 09:00 174 5 gusting 7 26.7
2016-May-05 08:50 175 6 gusting 7 26.7
2016-May-05 08:40 173 6 gusting 8 26.7
2016-May-05 08:30 207 6 gusting 8 26.7
2016-May-05 08:20 178 6 gusting 6 26.7
2016-May-05 08:10 177 6 gusting 6 26.7
2016-May-05 08:00 184 4 gusting 7 26.7
2016-May-05 07:50 179 4 gusting 6 26.7
2016-May-05 07:40 174 5 gusting 6 26.7
2016-May-05 07:30 196 4 gusting 6 26.7
2016-May-05 07:20 168 5 gusting 5 26.7
2016-May-05 07:10 168 4 gusting 6 26.7
2016-May-05 07:00 194 6 gusting 6 26.7
2016-May-05 06:50 180 5 gusting 6 26.7
2016-May-05 06:40 214 3 gusting 5 26.7
2016-May-05 06:30 164 2 gusting 8 26.7
2016-May-05 06:20 182 3 gusting 6 26.7
2016-May-05 06:10 189 4 gusting 6 26.7
2016-May-05 06:00 162 5 gusting 7 26.7
2016-May-05 05:50 173 6 gusting 6 27.2
2016-May-05 05:40 196 5 gusting 6 27.2
2016-May-05 05:30 184 4 gusting 6 27.2
2016-May-05 05:20 178 5 gusting 7 27.2
2016-May-05 04:50 183 6 gusting 6 27.2
2016-May-05 04:40 223 4 gusting 6 27.2
2016-May-05 04:30 171 4 gusting 6 27.2
2016-May-05 04:10 199 3 gusting 5 27.2
2016-May-05 04:00 183 3 gusting 6 27.2
2016-May-05 03:50 205 2 gusting 6 27.2
2016-May-05 03:40 178 3 gusting 4 27.2
2016-May-05 03:20 184 4 gusting 5 27.2
2016-May-05 03:10 215 2 gusting 4 27.2
2016-May-05 03:00 177 6 gusting 6 27.2
2016-May-05 02:50 170 6 gusting 6 27.2
2016-May-05 02:40 217 5 gusting 6 27.2
2016-May-05 02:30 215 1 gusting 6 27.2
2016-May-05 02:20 174 2 gusting 6 27.2
2016-May-05 02:00 211 4 gusting 6 27.2
2016-May-05 01:50 189 4 gusting 6 27.2
2016-May-05 01:40 187 6 gusting 6 27.2
2016-May-05 01:30 158 4 gusting 6 27.2
2016-May-05 01:20 194 2 gusting 5 26.7
2016-May-05 01:10 170 4 gusting 8 26.7
2016-May-05 01:00 157 4 gusting 11 26.7
2016-May-05 00:50 186 4 gusting 7 27.2
2016-May-05 00:40 171 5 gusting 6 27.2
2016-May-05 00:30 191 3 gusting 6 27.2
2016-May-05 00:20 085 1 gusting 8 26.7
2016-May-05 00:10 197 7 gusting 8 27.8
2016-May-05 00:00 153 5 gusting 6 27.8
2016-May-04 23:50 189 6 gusting 6 27.8
2016-May-04 23:40 174 5 gusting 6 27.8
2016-May-04 23:30 156 6 gusting 7 27.8
2016-May-04 23:20 148 4 gusting 8 28.3
2016-May-04 23:10 165 2 gusting 10 28.3
2016-May-04 23:00 183 8 gusting 10 28.3
2016-May-04 22:54 175 5 gusting 7 28.3
2016-May-04 22:50 188 4 gusting 6 28.3
2016-May-04 22:40 221 6 gusting 7 28.3
2016-May-04 22:30 155 6 gusting 8 28.3
2016-May-04 22:20 166 6 gusting 11 28.3
2016-May-04 22:10 181 6 gusting 8 28.9
2016-May-04 22:00 173 5 gusting 12 28.9
2016-May-04 21:50 213 6 gusting 7 28.9
2016-May-04 21:40 168 6 gusting 10 29.4
2016-May-04 21:30 157 8 gusting 11 29.4
2016-May-04 21:20 175 6 gusting 8 29.4
2016-May-04 21:10 206 10 gusting 10 29.4
2016-May-04 21:00 172 6 gusting 12 29.4
2016-May-04 20:50 184 5 gusting 6 29.4
2016-May-04 20:40 178 6 gusting 10 30.0
2016-May-04 20:30 186 4 gusting 7 30.0
2016-May-04 20:20 190 5 gusting 10 30.0
2016-May-04 20:10 170 10 gusting 13 29.4
2016-May-04 20:00 155 5 gusting 11 30.0
2016-May-04 19:50 128 5 gusting 7 30.0
2016-May-04 19:40 136 6 gusting 8 30.0
2016-May-04 19:30 189 6 gusting 7 30.0
2016-May-04 19:10 172 7 gusting 8 30.0
2016-May-04 19:00 138 3 gusting 12 29.4
2016-May-04 18:50 164 4 gusting 12 30.0
2016-May-04 18:40 164 5 gusting 8 30.0
2016-May-04 18:20 147 6 gusting 11 29.4
2016-May-04 18:10 178 9 gusting 12 30.0
2016-May-04 18:00 203 9 gusting 12 30.0
2016-May-04 17:50 181 4 gusting 12 30.0
2016-May-04 17:40 127 2 gusting 11 30.0
2016-May-04 17:30 164 6 gusting 11 30.0
2016-May-04 17:00 147 6 gusting 11 30.6
2016-May-04 16:50 141 6 gusting 11 30.6
2016-May-04 16:40 169 11 gusting 13 29.4
2016-May-04 16:30 145 5 gusting 13 30.0
2016-May-04 16:20 142 4 gusting 11 30.0
2016-May-04 16:10 156 5 gusting 8 30.0
2016-May-04 16:00 122 6 gusting 10 29.4